This is the latest recevied weather packets stored in our database for station/object DL9GRB-13. If no packets are shown the sender has not sent any weather packets the latest 1 day(s).
| Time | Temp. | Humidity | Pressure | Rain* | Wind** | Luminosity | Snow |
|---|---|---|---|---|---|---|---|
| 1778049788 | 10° C | 68% | 1007.3 hPa | 0 mm | - | 130 W/m² | - |
| 1778049608 | 10° C | 67% | 1007.3 hPa | 0 mm | - | 132 W/m² | - |
| 1778049428 | 10° C | 68% | 1007.3 hPa | 0 mm | - | 133 W/m² | - |
| 1778049248 | 10° C | 68% | 1007.3 hPa | 0 mm | - | 133 W/m² | - |
| 1778049068 | 10° C | 67% | 1007.2 hPa | 0 mm | - | 134 W/m² | - |
| 1778048888 | 10° C | 69% | 1007.2 hPa | 0 mm | - | 135 W/m² | - |
| 1778048708 | 10° C | 68% | 1007.1 hPa | 0 mm | - | 133 W/m² | - |
| 1778048528 | 10° C | 68% | 1007 hPa | 0 mm | - | 128 W/m² | - |
| 1778048348 | 10° C | 68% | 1007.1 hPa | 0 mm | - | 123 W/m² | - |
| 1778048168 | 9.44° C | 67% | 1007.1 hPa | 0 mm | - | 119 W/m² | - |
| 1778047808 | 9.44° C | 67% | 1007.3 hPa | 0 mm | - | 113 W/m² | - |
| 1778047628 | 9.44° C | 67% | 1007.2 hPa | 0 mm | - | 109 W/m² | - |
| 1778047448 | 9.44° C | 67% | 1007.3 hPa | 0 mm | - | 105 W/m² | - |
| 1778047268 | 9.44° C | 67% | 1007.1 hPa | 0 mm | - | 101 W/m² | - |
| 1778047088 | 9.44° C | 67% | 1007.2 hPa | 0 mm | - | 98 W/m² | - |
| 1778046908 | 9.44° C | 66% | 1007.3 hPa | 0 mm | - | 96 W/m² | - |
| 1778046728 | 9.44° C | 66% | 1007.2 hPa | 0 mm | - | 92 W/m² | - |
| 1778046368 | 9.44° C | 66% | 1007.3 hPa | 0 mm | - | 85 W/m² | - |
| 1778046188 | 9.44° C | 67% | 1007.3 hPa | 0 mm | - | 83 W/m² | - |
| 1778046008 | 9.44° C | 67% | 1007.2 hPa | 0 mm | - | 82 W/m² | - |
| 1778045828 | 8.89° C | 67% | 1007.3 hPa | 0 mm | - | 81 W/m² | - |
| 1778045648 | 8.89° C | 67% | 1007.2 hPa | 0 mm | - | 79 W/m² | - |
| 1778045468 | 8.89° C | 67% | 1007.3 hPa | 0 mm | - | 78 W/m² | - |
| 1778045288 | 8.89° C | 67% | 1007.3 hPa | 0 mm | - | 75 W/m² | - |
| 1778045108 | 8.89° C | 67% | 1007.3 hPa | 0 mm | - | 72 W/m² | - |
* Rain latest hour (hover to see other rain measurements)
** Current wind speed in m/s (hover to see current wind gust speed)